Waarnemingen

Advertentie
Mijn weer
Mont-De-Marsan, Frankrijk (7607): temperatuur & dauwpunt: 20.03.2017 00:00:00 - 26.03.2017 00:00:00 (CET)Mont-De-Marsan, Frankrijk (7607): temperatuur 5cm: 20.03.2017 00:00:00 - 26.03.2017 00:00:00 (CET)Mont-De-Marsan, Frankrijk (7607): temperatuur -20cm & temperatuur -100cm: 20.03.2017 00:00:00 - 26.03.2017 00:00:00 (CET)Mont-De-Marsan, Frankrijk (7607): windsnelheid & windstoten: 20.03.2017 00:00:00 - 26.03.2017 00:00:00 (CET)Mont-De-Marsan, Frankrijk (7607): windrichting: 20.03.2017 00:00:00 - 26.03.2017 00:00:00 (CET)Mont-De-Marsan, Frankrijk (7607): luchtdruk: 20.03.2017 00:00:00 - 26.03.2017 00:00:00 (CET)Mont-De-Marsan, Frankrijk (7607): zicht: 20.03.2017 00:00:00 - 26.03.2017 00:00:00 (CET)Mont-De-Marsan, Frankrijk (7607): Zonneschijnduur: 20.03.2017 00:00:00 - 26.03.2017 00:00:00 (CET)Mont-De-Marsan, Frankrijk (7607): neerslag: 20.03.2017 00:00:00 - 26.03.2017 00:00:00 (CET)
Datum & Tijd tt [°C] td [°C] tt 5cm [°C] tt -20cm [°C] tt -100cm [°C] ff [km/u] ff [kn] fx [km/u] fx [kn] dd ppp [hPa] vv [km] sd [min] rr [mm]
26.03.2017 00:00:00 7,5 6,8 6,7 11,7 11,8 6 3 7 4 O 1015,2 29 0 0,0
25.03.2017 23:00:00 7,8 6,7 6,8 11,8 11,8 4 2 14 8 O 1015,2 33 0 0,0
25.03.2017 22:00:00 8,2 7,0 7,4 11,9 11,8 5 3 10 5 NNO 1014,8 8 0 0,0
25.03.2017 21:00:00 9,0 7,4 6,9 11,9 11,8 4 2 9 5 Z 1014,3 19 0 0,0
25.03.2017 20:00:00 7,7 6,8 4,7 11,9 11,8 2 1 6 3 ONO 1013,1 60 0 0,0
25.03.2017 19:00:00 9,5 6,8 7,0 11,9 11,8 4 2 21 11 ZO 1012,5 60 1 0,0
25.03.2017 18:00:00 10,4 7,5 9,8 11,8 11,8 10 5 19 10 OZO 1011,9 59 0 0,0
25.03.2017 17:00:00 10,0 7,4 9,7 11,7 11,8 8 4 13 7 OZO 1011,0 60 0 0,0
25.03.2017 16:00:00 9,4 7,0 9,1 11,6 11,8 2 1 23 13 WZW 1010,1 20 0 0,6
25.03.2017 15:00:00 9,3 7,6 9,2 11,4 11,8 13 7 27 15 ZZW 1009,4 5 0 3,0
25.03.2017 14:00:00 11,8 7,7 13,9 11,3 11,8 12 6 20 11 ZZW 1009,2 60 16 0,0
25.03.2017 13:00:00 11,8 8,3 13,3 11,2 11,8 6 3 13 7 ZZO 1009,4 58 9 0,0
25.03.2017 12:00:00 10,1 7,9 9,7 11,2 11,8 4 2 15 8 W 1009,8 37 0 0,0
25.03.2017 11:00:00 8,7 7,1 9,3 11,2 11,8 5 3 14 8 ZO 1010,2 20 0 0,0
25.03.2017 10:00:00 8,4 7,3 8,2 11,2 11,8 6 3 8 5 O 1010,4 19 0 0,0
25.03.2017 09:00:00 7,7 6,8 7,4 11,3 11,8 0 0 6 4 N 1010,6 40 0 0,0
25.03.2017 08:00:00 7,2 6,5 7,0 11,4 11,8 4 2 14 8 W 1010,8 47 0 0,0
25.03.2017 07:00:00 7,0 6,4 6,9 11,4 11,8 7 4 13 7 WNW 1011,2 42 0 0,0
25.03.2017 06:00:00 6,9 6,3 6,9 11,5 11,8 6 4 9 5 WNW 1011,9 8 0 0,2
25.03.2017 05:00:00 7,0 6,1 6,7 11,5 11,8 4 2 5 3 NNW 1012,9 17 0 0,0
25.03.2017 04:00:00 7,0 6,1 7,0 11,6 11,8 3 1 6 4 NNW 1013,6 11 0 0,2
25.03.2017 03:00:00 7,2 6,3 7,2 11,7 11,8 2 1 5 3 N 1014,8 19 0 0,2
25.03.2017 02:00:00 7,4 6,5 7,2 11,7 11,8 4 2 6 3 NNO 1015,7 19 0 0,0
25.03.2017 01:00:00 7,7 6,3 7,2 11,8 11,8 3 2 9 5 ZO 1016,3 51 0 0,2
25.03.2017 00:00:00 8,0 6,5 7,4 11,9 11,8 7 4 11 6 OZO 1016,6 58 0 0,0
24.03.2017 23:00:00 8,0 6,6 7,5 11,9 11,8 7 4 12 7 OZO 1017,1 19 0 0,4
24.03.2017 22:00:00 8,1 6,6 7,4 11,9 11,8 9 5 15 8 O 1017,5 60 0 0,4
24.03.2017 21:00:00 8,6 5,5 7,5 11,9 11,8 17 9 32 17 NO 1018,1 7 0 0,2
24.03.2017 20:00:00 10,7 5,9 9,7 11,8 11,8 11 6 16 9 O 1017,3 60 0 0,0
24.03.2017 19:00:00 11,8 5,6 11,2 11,7 11,8 10 6 22 12 O 1017,1 60 0 0,0
24.03.2017 18:00:00 12,7 4,9 12,5 11,6 11,8 16 9 25 13 O 1016,5 60 0 0,0
24.03.2017 17:00:00 13,6 5,5 14,6 11,3 11,8 14 8 24 13 O 1016,5 60 0 0,0
24.03.2017 16:00:00 14,3 4,6 17,0 11,0 11,8 14 8 22 12 NO 1016,5 60 0 0,0
24.03.2017 15:00:00 14,3 4,0 18,4 10,7 11,8 7 4 12 6 NNO 1016,3 60 8 0,0
24.03.2017 14:00:00 13,8 3,5 17,7 10,5 11,9 3 2 10 6 NO 1016,5 20 15 0,0
24.03.2017 13:00:00 13,4 4,3 19,9 10,3 11,8 0 0 8 4 N 1016,8 20 45 0,0
24.03.2017 12:00:00 11,1 4,1 15,3 10,3 11,8 2 1 10 5 NO 1017,5 60 60 0,0
24.03.2017 11:00:00 7,9 4,1 9,5 10,3 11,8 0 0 8 4 N 1017,3 56 15 0,0
24.03.2017 10:00:00 5,7 3,0 4,1 10,5 11,8 3 1 15 8 OZO 1017,4 60 30 0,0
24.03.2017 09:00:00 3,1 2,5 0,0 10,6 11,8 10 5 13 7 NNO 1016,8 56 4 0,2
24.03.2017 08:00:00 1,0 0,4 -2,9 10,8 11,8 6 4 11 6 NO 1016,0 48 0 0,0
24.03.2017 07:00:00 0,7 0,3 -3,5 11,0 11,8 6 3 13 7 ONO 1015,5 43 0 0,0
24.03.2017 06:00:00 0,6 -0,1 -3,7 11,2 11,9 0 0 8 4 N 1015,2 41 0 0,0
24.03.2017 05:00:00 0,8 -0,2 -3,1 11,4 11,8 2 1 4 2 N 1014,7 10 0 0,0
24.03.2017 04:00:00 1,4 0,4 -1,8 11,6 11,8 5 3 8 4 NNO 1014,6 60 0 0,0
24.03.2017 03:00:00 2,4 1,1 -0,6 11,7 11,8 5 3 11 6 NO 1014,9 59 0 0,0
24.03.2017 02:00:00 3,3 1,8 -0,2 11,9 11,8 8 4 10 6 NO 1014,6 60 0 0,0
24.03.2017 01:00:00 5,0 2,7 0,2 12,1 11,9 4 2 12 7 ONO 1014,5 60 0 0,0
24.03.2017 00:00:00 4,6 1,6 0,4 12,2 11,9 10 5 13 7 ONO 1014,0 60 0 0,0
23.03.2017 23:00:00 4,4 0,9 1,5 12,3 11,8 8 4 11 6 NNO 1013,7 60 0 0,0
23.03.2017 22:00:00 6,8 1,5 4,6 12,4 11,9 4 2 11 6 ONO 1013,1 60 0 0,0
23.03.2017 21:00:00 6,4 2,3 1,7 12,5 11,9 6 4 8 5 NNO 1012,5 60 0 0,0
23.03.2017 20:00:00 7,6 0,8 1,9 12,4 11,9 3 2 8 5 ONO 1011,5 60 0 0,0
23.03.2017 19:00:00 10,9 -0,6 5,9 12,3 11,9 4 2 9 5 ONO 1010,6 60 9 0,0
23.03.2017 18:00:00 13,2 -2,3 13,6 12,1 11,9 5 3 13 7 OZO 1010,0 60 49 0,0
23.03.2017 17:00:00 13,4 -1,8 15,4 11,9 11,9 3 1 23 13 NO 1009,6 60 48 0,0
23.03.2017 16:00:00 13,9 -1,3 17,1 11,6 11,8 9 5 23 12 ZW 1009,5 60 58 0,0
23.03.2017 15:00:00 12,2 -0,7 13,5 11,3 11,9 14 8 30 16 ZW 1009,5 60 40 0,0
23.03.2017 14:00:00 11,9 -0,3 13,5 11,1 11,9 13 7 26 14 ZW 1009,7 60 40 0,0
23.03.2017 13:00:00 12,0 1,9 12,6 10,9 11,9 10 5 23 12 ZZW 1010,0 60 40 0,0
23.03.2017 12:00:00 10,4 0,4 10,4 10,8 11,9 12 7 26 14 Z 1010,1 60 37 0,0
23.03.2017 11:00:00 9,9 3,6 10,7 10,8 11,9 8 5 18 10 ZZW 1010,0 60 40 0,0
23.03.2017 10:00:00 8,0 4,6 7,9 10,8 11,9 9 5 14 8 Z 1010,1 60 37 0,0
23.03.2017 09:00:00 6,1 4,6 5,5 10,9 11,9 8 4 13 7 ZZO 1009,9 60 0 0,0
23.03.2017 08:00:00 5,3 4,6 3,0 11,0 11,9 4 2 6 4 ZZO 1009,5 15 0 0,0
23.03.2017 07:00:00 4,5 3,9 1,1 11,1 11,9 3 1 10 5 WZW 1008,9 17 0 0,0
23.03.2017 06:00:00 5,1 4,1 4,4 11,2 11,9 7 4 20 11 WZW 1008,6 60 0 0,0
23.03.2017 05:00:00 5,9 5,0 5,6 11,3 11,9 11 6 17 9 W 1008,7 20 0 0,2
23.03.2017 04:00:00 6,1 5,4 6,0 11,4 11,9 5 3 8 4 WZW 1008,8 15 0 0,4
23.03.2017 03:00:00 6,1 5,2 6,0 11,5 11,9 0 0 7 4 N 1008,8 20 0 0,0
23.03.2017 02:00:00 5,9 5,2 5,9 11,6 11,9 3 2 9 5 N 1009,3 60 0 0,0
23.03.2017 01:00:00 6,2 5,3 6,1 11,7 11,9 5 3 9 5 ONO 1009,3 54 0 0,0
23.03.2017 00:00:00 6,1 5,2 6,0 11,8 11,9 4 2 7 4 ONO 1009,7 60 0 0,2
22.03.2017 23:00:00 6,2 5,5 6,1 11,9 11,9 6 3 10 5 ONO 1009,6 25 0 2,1
22.03.2017 22:00:00 6,6 5,7 6,2 12,0 11,9 7 4 10 6 ZZO 1010,1 8 0 2,6
22.03.2017 21:00:00 6,6 5,4 6,0 12,1 11,9 3 1 10 5 ZZW 1009,7 4,5 0 3,2
22.03.2017 20:00:00 6,4 5,3 6,1 12,2 11,9 2 1 16 8 W 1009,7 2,6 0 2,6
22.03.2017 19:00:00 6,5 5,3 5,1 12,0 11,9 14 8 49 26 NW 1009,3 9 0 4,5
22.03.2017 18:00:00 10,7 5,4 10,7 11,9 11,9 27 14 41 22 NNW 1007,7 60 2 0,0
22.03.2017 17:00:00 14,2 4,7 14,6 11,8 11,9 11 6 21 11 NW 1007,4 60 37 0,0
22.03.2017 16:00:00 13,6 3,6 14,9 11,6 11,9 8 4 24 13 WNW 1007,9 60 20 0,0
22.03.2017 15:00:00 13,1 4,8 13,5 11,4 11,9 18 10 32 18 W 1009,4 60 0 0,0
22.03.2017 14:00:00 13,8 2,7 15,8 11,3 11,9 20 11 33 18 WZW 1010,0 20 21 0,0
22.03.2017 13:00:00 13,4 3,5 15,1 11,1 11,9 19 11 39 21 WZW 1010,6 60 4 0,0
22.03.2017 12:00:00 12,5 4,2 14,3 11,0 11,9 19 11 33 18 WZW 1011,1 60 21 0,0
22.03.2017 11:00:00 11,1 6,6 11,6 11,0 11,9 5 3 11 6 Z 1011,0 60 29 0,0
22.03.2017 10:00:00 8,6 7,4 8,9 11,0 11,9 8 4 16 8 O 1010,9 58 4 0,0
22.03.2017 09:00:00 7,3 6,6 6,6 11,1 11,9 11 6 17 9 OZO 1011,2 30 23 0,0
22.03.2017 08:00:00 6,0 5,7 6,0 11,1 11,9 9 5 15 8 OZO 1011,6 8 0 0,0
22.03.2017 07:00:00 6,0 5,7 5,9 11,2 11,9 10 5 16 8 OZO 1011,9 4,2 0 0,0
22.03.2017 06:00:00 5,7 5,4 5,7 11,3 11,9 8 4 16 8 O 1012,7 0,8 0 0,0
22.03.2017 05:00:00 6,0 5,7 5,8 11,4 11,9 7 4 14 8 ZO 1013,6 0,8 0 0,0
22.03.2017 04:00:00 5,7 5,4 4,5 11,5 11,9 9 5 17 9 ZO 1014,3 0,5 0 0,0
22.03.2017 03:00:00 4,6 4,3 4,2 11,7 11,9 6 3 8 4 O 1015,4 0,3 0 0,2
22.03.2017 02:00:00 4,1 3,8 1,3 11,8 11,9 2 1 6 3 OZO 1016,6 0,1 0 0,0
22.03.2017 01:00:00 2,9 2,3 0,1 11,9 11,9 0 0 4 2 N 1017,4 0,2 0 0,0
22.03.2017 00:00:00 4,5 3,8 0,3 12,0 11,9 0 0 5 3 N 1018,0 0,2 0 0,0
21.03.2017 23:00:00 5,9 4,9 2,3 12,1 11,9 0 0 5 3 N 1018,4 0,2 0 0,0
21.03.2017 22:00:00 7,8 7,0 4,5 12,2 11,9 4 2 6 4 ZZW 1018,9 9 0 0,0
21.03.2017 21:00:00 8,1 7,0 5,0 12,3 11,9 2 1 4 2 Z 1018,8 9 0 0,0
21.03.2017 20:00:00 8,4 7,3 6,9 12,3 11,9 0 0 5 3 N 1018,7 60 0 0,0
21.03.2017 19:00:00 8,6 7,4 8,4 12,2 11,9 4 2 11 6 N 1018,8 60 10 0,0
21.03.2017 18:00:00 8,4 7,2 8,3 12,3 11,9 10 6 25 13 NNW 1018,7 9 0 0,2
21.03.2017 17:00:00 9,6 7,7 9,6 12,2 11,9 12 7 26 14 NW 1018,3 42 4 0,2
21.03.2017 16:00:00 9,4 8,2 9,5 12,2 11,9 11 6 29 15 WNW 1018,1 22 0 1,0
21.03.2017 15:00:00 9,4 8,0 9,4 12,2 11,9 15 8 34 18 NNW 1017,7 10 0 1,0
21.03.2017 14:00:00 10,3 7,9 10,4 12,1 11,9 17 9 31 17 NNW 1017,4 60 0 0,0
21.03.2017 13:00:00 10,4 9,0 10,2 12,0 11,9 18 10 37 20 NW 1016,9 17 0 1,2
21.03.2017 12:00:00 11,8 9,2 11,3 12,0 11,9 18 10 31 17 W 1016,6 5 0 0,0
21.03.2017 11:00:00 13,0 7,4 13,8 11,9 11,8 16 9 26 14 ZW 1016,7 20 0 0,0
21.03.2017 10:00:00 12,2 7,3 12,7 11,9 11,8 9 5 16 9 WZW 1016,6 10 0 0,0
21.03.2017 09:00:00 11,3 6,8 11,0 12,0 11,8 10 5 16 9 ZW 1016,5 19 0 0,0
21.03.2017 08:00:00 10,0 7,2 9,1 12,1 11,8 3 1 6 4 ZZO 1016,7 17 0 0,0
21.03.2017 07:00:00 9,7 7,1 8,9 12,1 11,9 0 0 8 4 N 1016,5 16 0 0,0
21.03.2017 06:00:00 9,7 7,5 8,8 12,2 11,8 5 3 12 6 Z 1016,6 15 0 0,0
21.03.2017 05:00:00 9,3 7,4 8,8 12,2 11,8 0 0 10 5 N 1016,9 13 0 0,0
21.03.2017 04:00:00 9,5 7,6 8,7 12,3 11,8 4 2 8 5 ZZW 1017,1 16 0 0,0
21.03.2017 03:00:00 9,4 7,7 7,8 12,4 11,8 3 2 5 3 Z 1017,8 20 0 0,0
21.03.2017 02:00:00 9,0 7,6 8,2 12,4 11,8 2 1 5 3 WNW 1018,3 14 0 0,0
21.03.2017 01:00:00 9,5 7,6 8,9 12,5 11,8 4 2 9 5 W 1018,7 15 0 0,0
21.03.2017 00:00:00 9,8 7,7 8,9 12,5 11,8 5 3 11 6 ZZW 1019,0 17 0 0,0
20.03.2017 23:00:00 10,0 7,8 9,6 12,6 11,8 6 3 12 7 ZW 1019,3 14 0 0,0
20.03.2017 22:00:00 10,0 7,8 9,5 12,6 11,8 4 2 12 7 ZW 1019,3 41 0 0,0
20.03.2017 21:00:00 10,1 7,9 9,7 12,7 11,8 9 5 15 8 W 1019,3 18 0 0,0
20.03.2017 20:00:00 10,1 8,2 9,6 12,7 11,8 9 5 18 10 W 1018,9 19 0 0,0
20.03.2017 19:00:00 10,6 8,0 9,8 12,6 11,8 13 7 23 12 WNW 1018,5 20 0 0,0
20.03.2017 18:00:00 11,4 7,7 11,5 12,6 11,8 10 6 22 12 WNW 1018,1 60 0 0,0
20.03.2017 17:00:00 12,0 7,5 12,3 12,5 11,8 12 7 20 11 NW 1017,7 60 0 0,0
20.03.2017 16:00:00 12,5 7,4 13,0 12,4 11,8 13 7 20 11 WNW 1017,6 9 0 0,0
20.03.2017 15:00:00 12,7 7,6 13,9 12,3 11,8 8 5 19 10 NW 1017,5 60 0 0,0
20.03.2017 14:00:00 12,8 7,2 14,3 12,2 11,8 8 5 15 8 W 1017,7 60 0 0,0
20.03.2017 13:00:00 12,9 7,1 15,5 12,1 11,8 3 2 8 4 WZW 1017,7 19 0 0,0
20.03.2017 12:00:00 12,6 7,7 14,8 12,1 11,8 2 1 7 4 ZZO 1018,0 60 0 0,0
20.03.2017 11:00:00 11,6 7,5 12,6 12,1 11,8 3 1 10 5 OZO 1018,2 60 0 0,0
20.03.2017 10:00:00 10,6 7,7 11,1 12,1 11,8 4 2 7 4 ZZO 1018,1 60 0 0,0
20.03.2017 09:00:00 9,8 7,7 10,0 12,2 11,8 2 1 6 3 ZZO 1018,4 20 0 0,0
20.03.2017 08:00:00 9,2 8,0 8,9 12,2 11,8 3 2 10 6 Z 1018,4 13 0 0,0
20.03.2017 07:00:00 8,8 7,9 8,6 12,3 11,8 2 1 6 3 ZO 1018,4 18 0 0,0
20.03.2017 06:00:00 8,6 7,7 8,6 12,3 11,8 0 0 6 4 N 1018,3 12 0 0,0
20.03.2017 05:00:00 8,5 7,9 8,4 12,4 11,8 3 2 5 3 OZO 1018,2 9 0 0,0
20.03.2017 04:00:00 8,3 7,5 8,4 12,5 11,8 3 1 7 4 O 1018,7 10 0 0,2
20.03.2017 03:00:00 8,5 7,6 8,4 12,6 11,8 4 2 5 3 N 1019,4 3,5 0 0,0
20.03.2017 02:00:00 8,5 7,1 8,2 12,7 11,8 0 0 4 2 N 1019,8 41 0 0,0
20.03.2017 01:00:00 8,1 6,9 7,8 12,8 11,8 2 1 7 4 W 1020,3 40 0 0,0
20.03.2017 00:00:00 7,8 6,7 3,2 12,9 11,8 6 3 9 5 WNW 1020,9 43 0 0,0

tt = temperatuur
td = dauwpunt
tt 5cm = temperatuur 5cm
tt -20cm = temperatuur -20cm
tt -100cm = temperatuur -100cm
ff = windsnelheid
fx = windstoten
dd = windrichting
ppp = luchtdruk
vv = zicht
sd = Zonneschijnduur
rr = neerslag

Weerstations in de omgeving